This is the latest recevied weather packets stored in our database for station/object W0SS-13. If no packets are shown the sender has not sent any weather packets the latest 10 day(s).
| Time | Temp. | Humidity | Pressure | Rain* | Wind** | Luminosity | Snow |
|---|---|---|---|---|---|---|---|
| 1777601929 | 12.22° C | 64% | 1018.9 hPa | 0 mm | - | 0 W/m² | - |
| 1777601623 | 12.22° C | 64% | 1018.9 hPa | 0 mm | - | 0 W/m² | - |
| 1777601319 | 12.22° C | 63% | 1018.8 hPa | 0 mm | - | 0 W/m² | - |
| 1777601016 | 12.78° C | 63% | 1018.7 hPa | 0 mm | - | 0 W/m² | - |
| 1777600713 | 12.78° C | 63% | 1018.7 hPa | 0 mm | - | 0 W/m² | - |
| 1777600408 | 12.78° C | 63% | 1018.6 hPa | 0 mm | - | 0 W/m² | - |
| 1777600105 | 12.78° C | 63% | 1018.5 hPa | 0 mm | - | 0 W/m² | - |
| 1777599800 | 12.78° C | 63% | 1018.3 hPa | 0 mm | - | 0 W/m² | - |
| 1777599495 | 13.33° C | 62% | 1018.5 hPa | 0 mm | - | 0 W/m² | - |
| 1777599193 | 13.33° C | 61% | 1018.2 hPa | 0 mm | - | 0 W/m² | - |
| 1777598889 | 13.89° C | 59% | 1018 hPa | 0 mm | - | 0 W/m² | - |
| 1777598586 | 13.89° C | 60% | 1018 hPa | 0 mm | - | 1 W/m² | - |
| 1777598282 | 13.89° C | 58% | 1017.9 hPa | 0 mm | - | 2 W/m² | - |
| 1777597981 | 13.89° C | 59% | 1017.9 hPa | 0 mm | - | 3 W/m² | - |
| 1777597679 | 14.44° C | 58% | 1018 hPa | 0 mm | - | 4 W/m² | - |
| 1777597375 | 14.44° C | 58% | 1017.8 hPa | 0 mm | - | 7 W/m² | - |
| 1777597071 | 14.44° C | 59% | 1017.8 hPa | 0 mm | - | 10 W/m² | - |
| 1777596767 | 14.44° C | 59% | 1017.8 hPa | 0 mm | - | 14 W/m² | - |
| 1777596463 | 14.44° C | 59% | 1017.6 hPa | 0 mm | - | 18 W/m² | - |
| 1777596161 | 15° C | 59% | 1017.7 hPa | 0 mm | - | 24 W/m² | - |
| 1777595858 | 15° C | 59% | 1017.5 hPa | 0 mm | - | 29 W/m² | - |
| 1777595553 | 15° C | 59% | 1017.7 hPa | 0 mm | - | 35 W/m² | - |
| 1777595249 | 15° C | 59% | 1017.4 hPa | 0 mm | - | 38 W/m² | - |
| 1777594945 | 15° C | 59% | 1017.5 hPa | 0 mm | - | 44 W/m² | - |
| 1777594642 | 15.56° C | 58% | 1017.4 hPa | 0 mm | - | 47 W/m² | - |
* Rain latest hour (hover to see other rain measurements)
** Current wind speed in m/s (hover to see current wind gust speed)